{"data":{"norad_id":48908,"epoch":"2026-05-25T01:29:17.549952Z","epoch_age_seconds":83391,"freshness":"FRESH","line1":"1 48908U 21059AF  26145.06200868  .00025181  00000+0  33385-3 0  9995","line2":"2 48908  97.7021 335.8156 0004704  83.0261 277.1529 15.58250609273694","mean_motion":15.58250609,"eccentricity":0.0004704,"inclination_deg":97.7021,"raan_deg":335.8156,"arg_perigee_deg":83.0261,"mean_anomaly_deg":277.1529,"bstar":0.00033385,"rev_number":27369,"period_min":92.411322779724,"perigee_km":389.53492910869,"apogee_km":395.90495131804,"semimajor_km":6770.8569402134,"source":"CELESTRAK","updated_at":"2026-05-25T13:37:56.976036Z"}}